period_start,C,m1,H,J0,J1,J2,J3,J4,J5,JA,JB,JC,JD,JJ,JK,JN,#
2017-02-03 00:00:43,0.17,0.20,0.00,22.79,26.45,30.03,14.54,48.34,1016.90,2032.07,3448.36,3052.45,3485.79,599.99,596.64,1.18,0000 0000 0000 0000 000000
2017-02-03 00:05:44,0.18,0.21,0.00,22.79,26.45,30.00,14.48,48.38,1016.83,2032.22,3444.57,3049.85,3482.70,599.78,596.36,1.23,0000 0000 0000 0000 000000
2017-02-03 00:10:45,0.17,0.22,0.00,22.79,26.44,30.00,14.56,48.37,1016.95,2032.14,3440.84,3047.20,3479.54,599.74,596.39,1.28,0000 0000 0000 0000 000000
2017-02-03 00:15:46,0.17,0.23,0.00,22.77,26.42,29.96,14.51,48.31,1016.98,2032.12,3437.05,3044.57,3476.42,600.08,596.96,1.33,0000 0000 0000 0000 000000
2017-02-03 00:20:47,0.17,0.24,0.00,22.75,26.42,29.97,14.53,48.38,1017.05,2032.20,3433.32,3042.03,3473.39,600.20,596.88,1.38,0000 0000 0000 0000 000000
2017-02-03 00:25:49,0.19,0.25,0.00,22.71,26.41,29.95,14.58,48.49,1017.09,2032.37,3429.60,3039.42,3470.36,599.97,596.90,1.43,0000 0000 0000 0000 000000
2017-02-03 00:30:50,0.16,0.26,0.00,22.74,26.40,29.95,14.46,48.30,1017.10,2032.41,3425.77,3036.69,3467.25,599.49,596.34,1.48,0000 0000 0000 0000 000000
2017-02-03 00:35:51,0.19,0.27,0.00,22.73,26.40,29.96,14.52,48.38,1017.10,2032.53,3422.02,3034.15,3464.24,599.96,596.83,1.53,0000 0000 0000 0000 000000
2017-02-03 00:40:53,0.19,0.28,0.00,22.68,26.40,29.95,14.57,48.47,1017.10,2032.75,3418.28,3031.53,3461.21,599.86,596.85,1.58,0000 0000 0000 0000 000000
2017-02-03 00:45:54,0.16,0.29,0.00,22.69,26.39,29.92,14.56,48.38,1017.10,2032.72,3414.58,3028.90,3458.09,600.19,597.19,1.63,0000 0000 0000 0000 000000
2017-02-03 00:50:55,0.19,0.30,0.00,22.68,26.38,29.93,14.54,48.38,1017.10,2032.90,3410.92,3026.29,3455.12,600.12,597.12,1.68,0000 0000 0000 0000 000000
2017-02-03 00:55:57,0.16,0.31,0.00,22.64,26.37,29.92,14.58,48.37,1017.12,2032.91,3407.27,3023.81,3452.10,600.16,597.13,1.73,0000 0000 0000 0000 000000
2017-02-03 01:00:58,0.17,0.31,0.00,22.63,26.37,29.91,14.50,48.52,1017.12,2032.91,3403.62,3021.22,3449.02,600.11,597.23,1.78,0000 0000 0000 0000 000000
2017-02-03 01:05:59,0.18,0.32,0.00,22.67,26.37,29.91,14.55,48.30,1017.12,2032.94,3399.87,3018.56,3445.86,600.29,597.26,1.84,0000 0000 0000 0000 000000
2017-02-03 01:11:01,0.17,0.33,0.00,22.67,26.36,29.92,14.55,48.49,1017.13,2032.94,3396.16,3015.95,3442.74,599.83,596.89,1.89,0000 0000 0000 0000 000000
2017-02-03 01:16:02,0.17,0.34,0.00,22.61,26.35,29.91,14.49,48.36,1017.15,2032.90,3392.42,3013.35,3439.68,599.61,596.76,1.94,0000 0000 0000 0000 000000
2017-02-03 01:21:03,0.19,0.35,0.00,22.60,26.35,29.90,14.57,48.38,1017.23,2032.89,3388.60,3010.57,3436.44,600.41,597.60,1.99,0000 0000 0000 0000 000000
2017-02-03 01:26:05,0.18,0.36,0.00,22.61,26.35,29.90,14.55,48.45,1017.41,2032.97,3384.68,3007.95,3433.27,599.88,597.21,2.04,0000 0000 0000 0000 000000
2017-02-03 01:31:06,0.19,0.37,0.00,22.61,26.33,29.86,14.61,48.58,1017.55,2032.97,3380.67,3005.33,3429.98,600.15,597.60,2.09,0000 0000 0000 0000 000000
2017-02-03 01:36:07,0.19,0.38,0.00,22.57,26.32,29.85,14.52,48.40,1017.58,2032.96,3376.62,3002.54,3426.70,599.87,597.37,2.14,0000 0000 0000 0000 000000
2017-02-03 01:41:09,0.19,0.39,0.00,22.55,26.32,29.85,14.53,48.48,1017.59,2032.94,3372.46,2999.66,3423.31,600.17,597.69,2.19,0000 0000 0000 0000 000000
2017-02-03 01:46:10,0.19,0.40,0.00,22.55,26.32,29.84,14.51,48.42,1017.59,2032.96,3368.36,2996.82,3419.92,599.94,597.48,2.24,0000 0000 0000 0000 000000
2017-02-03 01:51:11,0.19,0.41,0.00,22.52,26.30,29.84,14.57,48.64,1017.59,2032.97,3364.36,2994.09,3416.68,599.94,597.57,2.29,0000 0000 0000 0000 000000
2017-02-03 01:56:13,0.19,0.42,0.00,22.50,26.30,29.82,14.61,48.62,1017.59,2032.98,3360.31,2991.35,3413.40,600.14,597.78,2.34,0000 0000 0000 0000 000000
2017-02-03 02:01:14,0.17,0.43,0.00,22.51,26.30,29.80,14.51,48.48,1017.59,2032.97,3356.32,2988.58,3410.21,599.82,597.43,2.39,0000 0000 0000 0000 000000
2017-02-03 02:06:15,0.18,0.44,0.00,22.52,26.28,29.80,14.56,48.51,1017.59,2032.98,3352.43,2985.84,3407.01,600.08,597.54,2.44,0000 0000 0000 0000 000000
2017-02-03 02:11:17,0.18,0.45,0.00,22.50,26.27,29.80,14.55,48.48,1017.59,2032.98,3348.62,2983.19,3403.83,599.80,597.42,2.49,0000 0000 0000 0000 000000
2017-02-03 02:16:18,0.18,0.45,0.00,22.48,26.27,29.80,14.57,48.50,1017.59,2032.98,3344.78,2980.50,3400.69,599.98,597.80,2.54,0000 0000 0000 0000 000000
2017-02-03 02:21:19,0.18,0.46,0.00,22.48,26.25,29.78,14.58,48.55,1017.60,2032.98,3340.89,2977.88,3397.50,600.00,597.69,2.59,0000 0000 0000 0000 000000
2017-02-03 02:26:20,0.18,0.47,0.00,22.45,26.25,29.76,14.56,48.46,1017.59,2032.99,3337.06,2975.17,3394.40,600.04,597.77,2.64,0000 0000 0000 0000 000000
2017-02-03 02:31:21,0.17,0.48,0.00,22.45,26.24,29.74,14.60,48.48,1017.60,2032.99,3333.24,2972.46,3391.36,600.01,597.73,2.69,0000 0000 0000 0000 000000
2017-02-03 02:36:22,0.18,0.49,0.00,22.44,26.22,29.74,14.53,48.51,1017.61,2032.99,3329.41,2969.84,3388.42,599.80,597.67,2.74,0000 0000 0000 0000 000000
2017-02-03 02:41:24,0.18,0.50,0.00,22.45,26.22,29.74,14.64,48.56,1017.69,2032.99,3325.61,2967.17,3385.29,600.30,598.05,2.79,0000 0000 0000 0000 000000
2017-02-03 02:46:25,0.17,0.51,0.00,22.44,26.22,29.72,14.56,48.45,1017.91,2032.99,3321.78,2964.56,3382.23,600.10,598.02,2.84,0000 0000 0000 0000 000000
2017-02-03 02:51:26,0.18,0.52,0.00,22.42,26.20,29.73,14.58,48.59,1017.88,2032.99,3318.04,2962.00,3379.23,599.88,597.80,2.89,0000 0000 0000 0000 000000
2017-02-03 02:56:27,0.18,0.53,0.00,22.41,26.20,29.71,14.58,48.68,1017.90,2033.00,3314.19,2959.33,3376.13,599.64,597.57,2.94,0000 0000 0000 0000 000000
2017-02-03 03:01:28,0.18,0.54,0.00,22.43,26.20,29.72,14.58,48.50,1017.96,2033.00,3310.21,2956.61,3372.95,599.94,597.93,2.99,0000 0000 0000 0000 000000
2017-02-03 03:06:30,0.19,0.55,0.00,22.41,26.20,29.69,14.57,48.55,1018.03,2033.00,3306.20,2953.83,3369.69,600.15,598.24,3.04,0000 0000 0000 0000 000000
2017-02-03 03:11:31,0.21,0.56,0.00,22.39,26.18,29.70,14.55,48.59,1018.08,2033.01,3301.80,2950.84,3366.18,599.92,598.07,3.09,0000 0000 0000 0000 000000
2017-02-03 03:16:33,0.26,0.57,0.00,22.43,26.17,29.69,14.59,48.62,1018.08,2033.01,3296.49,2947.24,3362.02,600.11,598.23,3.14,0000 0000 0000 0000 000000
2017-02-03 03:21:34,0.24,0.58,0.00,22.41,26.17,29.66,14.52,48.67,1018.08,2033.02,3291.23,2943.77,3357.90,600.02,598.11,3.19,0000 0000 0000 0000 000000
2017-02-03 03:26:35,0.31,0.60,0.00,22.37,26.17,29.65,14.59,48.60,1018.08,2033.02,3285.05,2939.59,3353.02,600.01,598.19,3.24,0000 0000 0000 0000 000000
2017-02-03 03:31:36,0.25,0.61,0.00,22.39,26.16,29.66,14.58,48.75,1018.08,2033.02,3279.27,2935.73,3348.53,599.69,597.74,3.29,0000 0000 0000 0000 000000
2017-02-03 03:36:38,0.23,0.62,0.00,22.39,26.15,29.66,14.60,48.62,1018.08,2033.04,3274.51,2932.44,3344.77,600.07,598.19,3.34,0000 0000 0000 0000 000000
2017-02-03 03:41:39,0.22,0.63,0.00,22.36,26.15,29.68,14.62,48.72,1018.08,2033.03,3269.80,2929.28,3340.98,600.15,598.35,3.39,0000 0000 0000 0000 000000
2017-02-03 03:46:40,0.22,0.64,0.00,22.37,26.14,29.66,14.59,48.59,1018.10,2033.04,3265.21,2926.10,3337.25,599.95,598.12,3.44,0000 0000 0000 0000 000000
2017-02-03 03:51:42,0.28,0.66,0.00,22.37,26.12,29.65,14.68,48.62,1018.32,2033.04,3259.74,2922.27,3332.79,600.49,598.81,3.49,0000 0000 0000 0000 000000
2017-02-03 03:56:43,0.28,0.67,0.00,22.35,26.12,29.62,14.63,48.75,1018.49,2033.01,3253.53,2918.07,3327.98,599.91,598.35,3.54,0000 0000 0000 0000 000000
2017-02-03 04:01:44,0.34,0.69,0.00,22.34,26.11,29.63,14.60,48.63,1018.56,2033.04,3247.01,2913.71,3323.00,600.15,598.65,3.59,0000 0000 0000 0000 000000
2017-02-03 04:06:45,0.33,0.71,0.00,22.34,26.10,29.63,14.59,48.67,1018.57,2033.03,3239.62,2908.79,3317.40,600.08,598.56,3.64,0000 0000 0000 0000 000000
2017-02-03 04:11:47,0.27,0.72,0.00,22.36,26.10,29.60,14.65,48.63,1018.57,2033.03,3233.72,2904.87,3312.81,600.00,598.46,3.69,0000 0000 0000 0000 000000
2017-02-03 04:16:48,0.27,0.73,0.00,22.37,26.09,29.60,14.59,48.44,1018.57,2033.03,3228.29,2901.17,3308.52,600.34,598.69,3.74,0000 0000 0000 0000 000000
2017-02-03 04:21:49,0.27,0.75,0.00,22.34,26.07,29.61,14.59,48.40,1018.57,2033.02,3222.40,2897.22,3303.87,599.97,598.49,3.79,0000 0000 0000 0000 000000
2017-02-03 04:26:50,0.24,0.76,0.00,22.32,26.07,29.59,14.63,48.38,1018.58,2033.01,3217.27,2893.77,3299.84,600.09,598.61,3.84,0000 0000 0000 0000 000000
2017-02-03 04:31:52,0.28,0.78,0.00,22.34,26.07,29.60,14.66,48.38,1018.59,2033.02,3211.79,2890.03,3295.50,600.38,598.85,3.89,0000 0000 0000 0000 000000
2017-02-03 04:36:53,0.27,0.79,0.00,22.32,26.05,29.58,14.57,48.35,1018.60,2033.01,3206.04,2886.19,3290.97,600.04,598.61,3.94,0000 0000 0000 0000 000000
2017-02-03 04:41:55,0.27,0.80,0.00,22.29,26.05,29.58,14.59,48.45,1018.60,2033.02,3200.57,2882.48,3286.72,599.94,598.57,3.99,0000 0000 0000 0000 000000
2017-02-03 04:46:56,0.26,0.82,0.00,22.32,26.04,29.58,14.61,48.46,1018.60,2033.02,3195.13,2878.93,3282.47,599.97,598.67,4.04,0000 0000 0000 0000 000000
2017-02-03 04:51:57,0.28,0.83,0.00,22.32,26.02,29.57,14.57,48.51,1018.64,2033.02,3189.43,2875.18,3278.04,599.79,598.39,4.09,0000 0000 0000 0000 000000
2017-02-03 04:56:59,0.25,0.84,0.00,22.30,26.02,29.56,14.57,48.44,1018.72,2033.06,3184.07,2871.64,3273.92,599.94,598.63,4.14,0000 0000 0000 0000 000000
2017-02-03 05:02:00,0.24,0.86,0.00,22.29,26.02,29.56,14.60,48.50,1018.86,2033.06,3179.21,2868.28,3270.06,600.04,598.87,4.20,0000 0000 0000 0000 000000
2017-02-03 05:07:01,0.23,0.87,0.00,22.31,26.00,29.56,14.62,48.37,1018.94,2033.03,3174.54,2865.11,3266.27,600.31,599.11,4.25,0000 0000 0000 0000 000000
2017-02-03 05:12:03,0.24,0.88,0.00,22.30,26.00,29.54,14.60,48.34,1019.00,2033.02,3169.68,2861.84,3262.58,599.72,598.61,4.30,0000 0000 0000 0000 000000
2017-02-03 05:17:04,0.25,0.89,0.00,22.28,26.00,29.51,14.61,48.32,1019.04,2033.05,3164.65,2858.43,3258.67,599.88,598.86,4.35,0000 0000 0000 0000 000000
2017-02-03 05:22:05,0.25,0.91,0.00,22.27,25.99,29.52,14.57,48.24,1019.06,2033.10,3159.68,2854.99,3254.72,599.82,598.81,4.40,0000 0000 0000 0000 000000
2017-02-03 05:27:06,0.27,0.92,0.00,22.29,25.97,29.50,14.55,48.32,1019.06,2033.13,3154.42,2851.41,3250.50,599.85,598.75,4.45,0000 0000 0000 0000 000000
2017-02-03 05:32:08,0.26,0.93,0.00,22.27,25.97,29.54,14.55,48.27,1019.06,2033.14,3149.18,2847.81,3246.35,600.02,598.96,4.50,0000 0000 0000 0000 000000
2017-02-03 05:37:09,0.25,0.95,0.00,22.25,25.97,29.51,14.62,48.35,1019.06,2033.25,3144.28,2844.39,3242.42,600.08,599.04,4.55,0000 0000 0000 0000 000000
2017-02-03 05:42:10,0.23,0.96,0.00,22.26,25.96,29.49,14.58,48.28,1019.07,2033.24,3139.60,2841.19,3238.69,599.97,598.99,4.60,0000 0000 0000 0000 000000
2017-02-03 05:47:11,0.26,0.97,0.00,22.25,25.95,29.49,14.61,48.41,1019.07,2033.41,3135.04,2837.98,3234.94,600.09,599.07,4.65,0000 0000 0000 0000 000000
2017-02-03 05:52:13,0.23,0.98,0.00,22.23,25.95,29.49,14.54,48.35,1019.08,2033.54,3130.46,2834.79,3231.15,599.71,598.82,4.70,0000 0000 0000 0000 000000
2017-02-03 05:57:14,0.25,0.99,0.00,22.22,25.94,29.47,14.62,48.49,1019.09,2033.61,3125.74,2831.55,3227.31,599.94,599.00,4.75,0000 0000 0000 0000 000000
2017-02-03 06:02:15,0.25,1.01,0.00,22.26,25.92,29.46,14.60,48.40,1019.11,2033.66,3120.84,2828.14,3223.35,600.18,599.11,4.80,0000 0000 0000 0000 000000
2017-02-03 06:07:17,0.27,1.02,0.00,22.24,25.92,29.46,14.58,48.47,1019.19,2033.64,3115.77,2824.62,3219.27,599.84,598.94,4.85,0000 0000 0000 0000 000000
2017-02-03 06:12:18,0.26,1.04,0.00,22.24,25.92,29.46,14.65,48.43,1019.34,2033.88,3110.89,2821.27,3215.36,600.25,599.38,4.90,0000 0000 0000 0000 000000
2017-02-03 06:17:19,0.24,1.05,0.00,22.22,25.91,29.48,14.57,48.38,1019.51,2033.92,3106.23,2818.00,3211.59,599.72,599.10,4.95,0000 0000 0000 0000 000000
2017-02-03 06:22:21,0.23,1.06,0.00,22.24,25.90,29.45,14.65,48.42,1019.54,2033.83,3101.45,2814.80,3207.82,599.93,599.23,5.00,0000 0000 0000 0000 000000
2017-02-03 06:27:22,0.23,1.07,0.00,22.22,25.90,29.45,14.60,48.42,1019.55,2033.84,3097.03,2811.82,3204.23,599.82,599.29,5.05,0000 0000 0000 0000 000000
2017-02-03 06:32:23,0.20,1.08,0.00,22.19,25.90,29.44,14.56,48.42,1019.55,2033.87,3093.07,2809.04,3200.97,599.75,599.02,5.10,0000 0000 0000 0000 000000
2017-02-03 06:37:24,0.18,1.09,0.00,22.19,25.88,29.45,14.61,48.48,1019.55,2033.93,3089.37,2806.55,3198.09,599.84,599.24,5.15,0000 0000 0000 0000 000000
2017-02-03 06:42:25,0.20,1.10,0.00,22.19,25.87,29.41,14.62,48.48,1019.58,2033.93,3085.72,2803.97,3195.11,599.81,599.27,5.20,0000 0000 0000 0000 000000
2017-02-03 06:47:27,0.19,1.11,0.00,22.14,25.87,29.41,14.54,48.44,1019.66,2033.94,3081.89,2801.34,3191.99,599.50,599.14,5.25,0000 0000 0000 0000 000000
2017-02-03 06:52:28,0.20,1.12,0.00,22.12,25.86,29.43,14.64,48.52,1019.79,2033.96,3078.11,2798.77,3188.95,600.33,599.94,5.30,0000 0000 0000 0000 000000
2017-02-03 06:57:30,0.18,1.13,0.00,22.16,25.85,29.39,14.65,48.66,1019.89,2033.99,3074.62,2796.34,3186.08,599.88,599.42,5.35,0000 0000 0000 0000 000000
2017-02-03 07:02:31,0.18,1.14,0.00,22.13,25.85,29.40,14.66,48.60,1019.94,2033.98,3071.19,2793.97,3183.27,600.06,599.74,5.40,0000 0000 0000 0000 000000
2017-02-03 07:07:32,0.18,1.15,0.00,22.12,25.84,29.38,14.62,48.64,1020.01,2033.98,3067.70,2791.48,3180.36,600.32,600.19,5.45,0000 0000 0000 0000 000000
2017-02-03 07:12:34,0.19,1.16,0.00,22.11,25.82,29.40,14.62,48.61,1020.03,2033.99,3064.04,2788.98,3177.39,599.78,599.62,5.50,0000 0000 0000 0000 000000
2017-02-03 07:17:35,0.19,1.17,0.00,22.13,25.82,29.38,14.64,48.52,1020.03,2033.99,3060.40,2786.44,3174.39,600.23,600.07,5.55,0000 0000 0000 0000 000000
2017-02-03 07:22:36,0.19,1.18,0.00,22.11,25.82,29.38,14.67,48.43,1020.03,2033.99,3056.83,2783.94,3171.41,600.23,600.03,5.60,0000 0000 0000 0000 000000
2017-02-03 07:27:37,0.19,1.19,0.00,22.10,25.81,29.36,14.58,48.63,1020.04,2033.99,3053.17,2781.25,3168.35,599.82,599.53,5.65,0000 0000 0000 0000 000000
2017-02-03 07:32:38,0.18,1.20,0.00,22.10,25.80,29.34,14.68,48.63,1020.04,2033.99,3049.58,2778.80,3165.39,600.09,599.95,5.70,0000 0000 0000 0000 000000
2017-02-03 07:37:40,0.18,1.21,0.00,22.09,25.80,29.33,14.60,48.51,1020.05,2033.99,3046.09,2776.36,3162.49,599.85,599.74,5.75,0000 0000 0000 0000 000000
2017-02-03 07:42:41,0.19,1.22,0.00,22.05,25.78,29.33,14.68,48.57,1020.05,2033.99,3042.53,2773.87,3159.60,599.80,599.75,5.80,0000 0000 0000 0000 000000
2017-02-03 07:47:43,0.18,1.23,0.00,22.06,25.77,29.29,14.66,48.45,1020.07,2033.99,3039.07,2771.47,3156.76,600.07,600.02,5.85,0000 0000 0000 0000 000000
2017-02-03 07:52:44,0.18,1.24,0.00,22.08,25.77,29.29,14.63,48.57,1020.19,2033.99,3035.57,2769.07,3153.90,599.84,599.83,5.90,0000 0000 0000 0000 000000
2017-02-03 07:57:45,0.18,1.25,0.00,22.05,25.75,29.29,14.59,48.56,1020.40,2033.99,3032.09,2766.70,3151.10,600.00,600.14,5.95,0000 0000 0000 0000 000000
2017-02-03 08:02:46,0.18,1.26,0.00,22.00,25.75,29.30,14.68,48.54,1020.50,2033.99,3028.67,2764.32,3148.29,600.35,600.66,6.00,0000 0000 0000 0000 000000
2017-02-03 08:07:47,0.17,1.27,0.00,22.03,25.74,29.29,14.64,48.52,1020.52,2033.99,3025.48,2762.09,3145.63,599.89,600.19,6.05,0000 0000 0000 0000 000000
2017-02-03 08:12:48,0.18,1.27,0.00,22.02,25.72,29.24,14.66,48.63,1020.52,2033.99,3022.11,2759.73,3142.88,600.49,600.81,6.10,0000 0000 0000 0000 000000
2017-02-03 08:17:49,0.18,1.28,0.00,21.98,25.72,29.23,14.68,48.59,1020.52,2033.99,3018.70,2757.39,3140.10,600.12,600.57,6.15,0000 0000 0000 0000 000000
2017-02-03 08:22:51,0.18,1.29,0.00,22.00,25.71,29.23,14.59,48.49,1020.54,2034.00,3015.37,2755.10,3137.35,599.72,600.16,6.20,0000 0000 0000 0000 000000
2017-02-03 08:27:52,0.17,1.30,0.00,22.01,25.70,29.25,14.63,48.69,1020.56,2034.00,3012.00,2752.78,3134.74,599.90,600.29,6.25,0000 0000 0000 0000 000000
2017-02-03 08:32:53,0.17,1.31,0.00,21.99,25.70,29.25,14.55,48.55,1020.57,2034.00,3008.74,2750.61,3132.12,599.90,600.29,6.30,0000 0000 0000 0000 000000
2017-02-03 08:37:55,0.18,1.32,0.00,21.97,25.67,29.21,14.67,48.52,1020.62,2034.00,3005.53,2748.30,3129.32,600.15,600.61,6.35,0000 0000 0000 0000 000000
2017-02-03 08:42:56,0.18,1.33,0.00,21.98,25.67,29.23,14.67,48.63,1020.84,2034.00,3002.15,2746.00,3126.62,599.99,600.64,6.40,0000 0000 0000 0000 000000
2017-02-03 08:47:57,0.17,1.34,0.00,21.97,25.66,29.20,14.62,48.63,1020.98,2034.00,2998.85,2743.67,3123.91,599.99,600.77,6.45,0000 0000 0000 0000 000000
2017-02-03 08:52:58,0.18,1.35,0.00,21.94,25.65,29.19,14.70,48.71,1021.01,2034.01,2995.49,2741.38,3121.20,600.13,600.88,6.51,0000 0000 0000 0000 000000
2017-02-03 08:57:59,0.18,1.36,0.00,21.93,25.65,29.17,14.62,48.62,1021.01,2034.02,2992.16,2739.10,3118.44,599.81,600.60,6.56,0000 0000 0000 0000 000000
2017-02-03 09:03:01,0.18,1.36,0.00,21.95,25.63,29.18,14.66,48.60,1021.01,2034.03,2988.76,2736.75,3115.72,600.01,600.75,6.61,0000 0000 0000 0000 000000
2017-02-03 09:08:02,0.18,1.37,0.00,21.93,25.62,29.13,14.67,48.66,1021.05,2034.03,2985.38,2734.38,3113.01,599.81,600.53,6.66,0000 0000 0000 0000 000000
2017-02-03 09:13:03,0.18,1.38,0.00,21.89,25.62,29.16,14.62,48.57,1021.16,2034.06,2982.02,2732.11,3110.29,599.79,600.75,6.71,0000 0000 0000 0000 000000
2017-02-03 09:18:04,0.17,1.39,0.00,21.90,25.60,29.14,14.73,48.69,1021.35,2034.05,2978.77,2729.84,3107.62,600.21,601.22,6.76,0000 0000 0000 0000 000000
2017-02-03 09:23:06,0.18,1.40,0.00,21.91,25.60,29.12,14.71,48.69,1021.38,2034.08,2975.50,2727.59,3104.98,600.10,601.10,6.81,0000 0000 0000 0000 000000
2017-02-03 09:28:07,0.19,1.41,0.00,21.87,25.59,29.11,14.69,48.63,1021.46,2034.17,2972.15,2725.29,3102.23,600.05,601.25,6.86,0000 0000 0000 0000 000000
2017-02-03 09:33:08,0.21,1.42,0.00,21.85,25.57,29.11,14.65,48.64,1021.49,2034.33,2968.82,2722.95,3099.52,600.17,601.33,6.91,0000 0000 0000 0000 000000
2017-02-03 09:38:10,0.19,1.43,0.00,21.88,25.57,29.13,14.62,48.63,1021.50,2034.54,2965.50,2720.61,3096.85,599.84,601.07,6.96,0000 0000 0000 0000 000000
2017-02-03 09:43:11,0.22,1.44,0.00,21.87,25.56,29.11,14.63,48.71,1021.50,2034.76,2962.11,2718.21,3093.99,600.02,601.23,7.01,0000 0000 0000 0000 000000
2017-02-03 09:48:12,0.19,1.45,0.00,21.84,25.55,29.10,14.63,48.66,1021.50,2034.73,2958.63,2715.59,3091.00,599.81,601.02,7.06,0000 0000 0000 0000 000000
2017-02-03 09:53:13,0.21,1.46,0.00,21.85,25.55,29.08,14.62,48.50,1021.52,2034.81,2955.06,2713.07,3088.02,599.98,601.19,7.11,0000 0000 0000 0000 000000
2017-02-03 09:58:15,0.19,1.47,0.00,21.84,25.54,29.05,14.68,48.58,1021.56,2034.94,2951.68,2710.69,3085.21,599.96,601.28,7.16,0000 0000 0000 0000 000000
2017-02-03 10:03:16,0.25,1.48,0.00,21.81,25.52,29.09,14.68,48.64,1021.78,2034.94,2947.33,2707.77,3081.77,599.98,601.39,7.21,0000 0000 0000 0000 000000
2017-02-03 10:08:18,0.22,1.50,0.00,21.79,25.52,29.03,14.66,48.59,1021.88,2034.92,2943.08,2704.83,3078.29,599.99,601.46,7.26,0000 0000 0000 0000 000000
2017-02-03 10:13:19,0.26,1.51,0.00,21.81,25.52,29.06,14.66,48.63,1021.99,2034.93,2938.45,2701.68,3074.61,599.69,601.33,7.31,0000 0000 0000 0000 000000
2017-02-03 10:18:20,0.27,1.52,0.00,21.80,25.51,29.03,14.67,48.58,1021.99,2034.97,2933.63,2698.37,3070.90,599.75,601.44,7.36,0000 0000 0000 0000 000000
2017-02-03 10:23:22,0.32,1.54,0.00,21.76,25.50,29.06,14.60,48.74,1021.99,2034.98,2927.74,2694.44,3066.46,599.90,601.70,7.41,0000 0000 0000 0000 000000
2017-02-03 10:28:23,0.36,1.56,0.00,21.75,25.50,29.04,14.70,48.74,1021.99,2034.98,2921.30,2690.20,3061.53,600.21,601.93,7.46,0000 0000 0000 0000 000000
2017-02-03 10:33:25,0.36,1.57,0.00,21.77,25.47,29.02,14.69,48.77,1022.00,2034.97,2914.45,2685.74,3056.38,600.06,601.72,7.51,0000 0000 0000 0000 000000
2017-02-03 10:38:26,0.38,1.59,0.00,21.74,25.47,29.01,14.68,48.77,1022.06,2034.98,2907.41,2681.21,3051.19,600.00,601.83,7.56,0000 0000 0000 0000 000000
2017-02-03 10:43:27,0.38,1.61,0.00,21.73,25.47,29.02,14.75,48.80,1022.27,2034.98,2900.26,2676.60,3045.94,600.12,601.93,7.61,0000 0000 0000 0000 000000
2017-02-03 10:48:28,0.43,1.63,0.00,21.77,25.45,29.00,14.71,48.68,1022.37,2034.98,2892.57,2671.54,3040.22,600.11,602.02,7.66,0000 0000 0000 0000 000000
2017-02-03 10:53:29,0.50,1.66,0.00,21.73,25.45,28.98,14.70,48.81,1022.45,2034.99,2883.68,2665.66,3033.58,599.98,602.02,7.71,0000 0000 0000 0000 000000
2017-02-03 10:58:31,0.45,1.68,0.00,21.70,25.44,28.98,14.68,48.83,1022.48,2034.99,2875.21,2660.07,3027.23,599.98,602.22,7.76,0000 0000 0000 0000 000000
2017-02-03 11:03:32,0.40,1.70,0.00,21.74,25.42,28.97,14.64,48.80,1022.48,2034.99,2867.57,2655.18,3021.70,599.83,601.85,7.81,0000 0000 0000 0000 000000
2017-02-03 11:08:33,0.39,1.72,0.00,21.74,25.42,28.97,14.67,48.85,1022.48,2034.99,2860.29,2650.44,3016.33,600.02,602.05,7.86,0000 0000 0000 0000 000000
2017-02-03 11:13:34,0.39,1.74,0.00,21.72,25.42,28.95,14.65,48.78,1022.49,2034.99,2853.19,2645.82,3011.08,599.86,601.94,7.91,0000 0000 0000 0000 000000
2017-02-03 11:18:36,0.39,1.76,0.00,21.70,25.40,28.94,14.69,48.88,1022.51,2034.99,2845.97,2641.16,3005.92,599.92,601.96,7.96,0000 0000 0000 0000 000000
2017-02-03 11:23:37,0.41,1.78,0.00,21.73,25.40,28.95,14.66,48.70,1022.49,2034.99,2838.61,2636.39,3000.52,599.94,601.99,8.01,0000 0000 0000 0000 000000
2017-02-03 11:28:38,0.38,1.80,0.00,21.72,25.40,28.95,14.64,48.73,1022.60,2034.99,2831.53,2631.80,2995.28,600.11,602.21,8.06,0000 0000 0000 0000 000000
2017-02-03 11:33:39,0.38,1.82,0.00,21.69,25.39,28.93,14.73,48.84,1022.87,2034.99,2824.65,2627.32,2990.21,599.93,602.31,8.11,0000 0000 0000 0000 000000
2017-02-03 11:38:40,0.35,1.84,0.00,21.71,25.37,28.93,14.68,48.81,1022.95,2035.00,2818.03,2623.17,2985.37,599.90,602.27,8.16,0000 0000 0000 0000 000000
2017-02-03 11:43:42,0.39,1.86,0.00,21.73,25.37,28.90,14.67,48.73,1022.95,2035.00,2811.23,2618.87,2980.30,600.18,602.58,8.21,0000 0000 0000 0000 000000
2017-02-03 11:48:43,0.42,1.88,0.00,21.69,25.37,28.91,14.75,48.94,1022.96,2035.00,2803.76,2613.99,2974.74,599.94,602.36,8.26,0000 0000 0000 0000 000000
2017-02-03 11:53:44,0.46,1.90,0.00,21.68,25.35,28.92,14.70,48.86,1022.97,2035.00,2795.93,2608.79,2968.69,599.75,602.19,8.31,0000 0000 0000 0000 000000
2017-02-03 11:58:45,0.45,1.93,0.00,21.71,25.35,28.88,14.71,48.84,1023.00,2035.00,2787.75,2603.56,2962.68,600.20,602.61,8.36,0000 0000 0000 0000 000000
2017-02-03 12:03:47,0.44,1.95,0.00,21.71,25.35,28.89,14.72,48.95,1023.21,2035.00,2779.76,2598.59,2957.02,600.09,602.61,8.41,0000 0000 0000 0000 000000
2017-02-03 12:08:48,0.33,1.97,0.00,21.67,25.33,28.87,14.68,48.88,1023.38,2035.00,2773.22,2594.43,2952.29,600.10,602.80,8.46,0000 0000 0000 0000 000000
2017-02-03 12:13:49,0.35,1.99,0.00,21.69,25.32,28.88,14.68,48.83,1023.44,2035.00,2767.27,2590.67,2947.96,600.06,602.75,8.51,0000 0000 0000 0000 000000
2017-02-03 12:18:50,0.37,2.00,0.00,21.72,25.32,28.88,14.64,48.77,1023.45,2035.00,2760.74,2586.43,2943.25,599.95,602.55,8.56,0000 0000 0000 0000 000000
2017-02-03 12:23:51,0.38,2.02,0.00,21.69,25.32,28.90,14.75,48.77,1023.45,2035.00,2754.29,2582.17,2938.43,599.88,602.53,8.61,0000 0000 0000 0000 000000
2017-02-03 12:28:52,0.36,2.04,0.00,21.69,25.31,28.90,14.69,48.86,1023.45,2035.00,2748.03,2577.96,2933.62,599.88,602.61,8.66,0000 0000 0000 0000 000000
2017-02-03 12:33:54,0.40,2.06,0.00,21.71,25.30,28.89,14.72,48.91,1023.45,2035.00,2741.57,2573.45,2928.50,600.00,602.71,8.71,0000 0000 0000 0000 000000
2017-02-03 12:38:55,0.42,2.08,0.00,21.70,25.30,28.90,14.74,48.90,1023.45,2035.00,2734.97,2568.73,2923.16,600.17,602.89,8.76,0000 0000 0000 0000 000000
2017-02-03 12:43:57,0.38,2.10,0.00,21.68,25.30,28.90,14.86,48.86,1023.46,2035.00,2728.46,2564.10,2917.83,600.14,602.96,8.82,0000 0000 0000 0000 000000
2017-02-03 12:48:58,0.33,2.12,0.00,21.69,25.29,28.90,14.70,48.82,1023.53,2035.00,2722.65,2560.27,2913.39,600.07,602.73,8.87,0000 0000 0000 0000 000000
2017-02-03 12:53:59,0.35,2.14,0.00,21.72,25.28,28.85,14.71,48.85,1023.66,2035.00,2716.92,2556.56,2908.89,600.15,602.93,8.92,0000 0000 0000 0000 000000
2017-02-03 12:59:00,0.33,2.15,0.00,21.70,25.27,28.87,14.80,48.73,1023.88,2035.01,2711.32,2552.80,2904.49,600.61,603.56,8.97,0000 0000 0000 0000 000000